Find OneWeb SL0309

NORAD ID: 49095 Int'l Des: 2021-075 Owner: ONEWEBN Country: UK Constellation: oneweb operational
LEOCIRCULARPOLARONEWEB_TYPE

当前视图

正在加载3D地球...

About OneWeb SL0309

OneWeb SL0309 (NORAD 49095) is a oneweb constellation satellite launched Aug 21, 2021 by ONEWEBN of UK. It operates in LEO, CIRCULAR, POLAR, ONEWEB_TYPE orbit with a mass of 148.00 kg.

关于 OneWeb SL0309

正在加载描述...

即将过境

Passes for default location (London). Set your location on the main map for personalized predictions.

高度历史

Loading altitude history...

两行轨道根数

1 49095U 21075W 26169.07619925 .00000015 00000-0 52829-5 0 9992
2 49095 87.9132 5.6861 0001997 102.9512 257.1843 13.17648724233697
Epoch: Jun 18, 2026 • Age: 15 hours

当前状态

高度 1198.0 km
速度 7.26 km/s
星下点 36.45°N, 148.72°W
发射日期 Aug 21, 2021
运行时间 4.8 years
类型 internet

技术详情

分类 Payload
质量 148.00 kg
干质量 140.00 kg
总质量 148.00 kg
长度 1.30 m
直径 1.00 m
跨度 5.00 m
形状 Trapezoid+2 pan
制造商 ONEWUS
平台类型 ARROW
阶段状态 In Orbit
所有者/国家 ONEWEBN/UK

Most Searched